GW5115 Weather Reports


time (UTC)temp
C
wind
direction
speed
KPH
gust
KPH
rain 1hr
cm
rain 24hr
cm
rain mn
cm
humidity
%
barometer
mb
20260906115340 20 71 0.0 0.0 0.00 0.00 0.00 99 1016.2
20260906114839 20 71 0.0 1.6 0.00 0.00 0.00 99 1016.3
20260906114335 20 71 0.0 1.6 0.00 0.00 0.00 99 1016.1
20260906113830 20 71 0.0 0.0 0.00 0.00 0.00 99 1016.1
20260906113329 20 71 0.0 0.0 0.00 0.00 0.00 99 1016.0
20260906112824 20 71 0.0 3.2 0.00 0.00 0.00 99 1015.8
20260906112320 20 81 0.0 3.2 0.00 0.00 0.00 99 1016.0
20260906111820 20 84 0.0 1.6 0.00 0.00 0.00 99 1015.8
20260906111319 20 70 1.6 3.2 0.00 0.00 0.00 99 1015.8
20260906110814 20 83 3.2 3.2 0.00 0.00 0.00 99 1015.8
20260906110311 20 83 0.0 3.2 0.00 0.00 0.00 99 1015.6
20260906105810 20 84 0.0 1.6 0.00 0.00 0.00 99 1015.5
20260906105306 20 118 0.0 0.0 0.00 0.00 0.00 99 1015.5
20260906104800 20 119 0.0 0.0 0.00 0.00 0.00 99 1015.3
20260906104259 20 118 0.0 0.0 0.00 0.00 0.00 99 1015.2
20260906103757 20 119 0.0 0.0 0.00 0.00 0.00 99 1015.2
20260906103257 20 118 0.0 0.0 0.00 0.00 0.00 99 1015.0
20260906102753 20 118 0.0 0.0 0.00 0.00 0.00 99 1015.0
20260906102251 20 116 0.0 0.0 0.00 0.00 0.00 99 1015.0
20260906101747 20 115 0.0 0.0 0.00 0.00 0.00 99 1015.2
20260906101242 20 115 0.0 0.0 0.00 0.00 0.00 99 1015.1
20260906100737 20 93 0.0 1.6 0.00 0.00 0.00 99 1015.2
20260906100236 20 61 0.0 1.6 0.00 0.00 0.00 99 1015.0
20260906095732 20 61 1.6 3.2 0.00 0.00 0.00 99 1015.0
20260906095227 20 60 0.0 1.6 0.00 0.00 0.00 99 1015.2
20260906094726 20 31 1.6 3.2 0.00 0.00 0.00 99 1015.1
20260906094222 20 31 0.0 0.0 0.00 0.00 0.00 99 1015.0
20260906093718 20 30 1.6 6.4 0.00 0.00 0.00 99 1015.0
20260906093213 20 29 0.0 0.0 0.00 0.00 0.00 99 1014.8
20260906092709 20 28 0.0 0.0 0.00 0.00 0.00 99 1014.9
20260906092208 20 29 0.0 0.0 0.00 0.00 0.00 99 1015.0
20260906091704 20 29 0.0 0.0 0.00 0.00 0.00 99 1015.0
20260906091200 20 28 0.0 0.0 0.00 0.00 0.00 99 1014.8
20260906090656 20 28 0.0 0.0 0.00 0.00 0.00 99 1015.0
20260906090155 20 28 0.0 0.0 0.00 0.00 0.00 99 1014.9
20260906085655 20 28 0.0 0.0 0.00 0.00 0.00 99 1015.0
20260906085154 19 28 0.0 0.0 0.00 0.00 0.00 99 1015.1
20260906084649 19 28 0.0 0.0 0.00 0.00 0.00 99 1015.0
20260906084148 19 28 0.0 0.0 0.00 0.00 0.00 99 1015.0
20260906083643 20 28 0.0 0.0 0.00 0.00 0.00 99 1015.0
20260906083139 20 28 0.0 0.0 0.00 0.00 0.00 99 1015.2
20260906082634 19 28 0.0 0.0 0.00 0.00 0.00 99 1015.0
20260906082129 19 28 0.0 0.0 0.00 0.00 0.00 99 1015.2
20260906081625 19 28 0.0 0.0 0.00 0.00 0.00 99 1014.7
20260906081120 19 28 0.0 0.0 0.00 0.00 0.00 99 1015.0
20260906080617 19 28 0.0 0.0 0.00 0.00 0.00 99 1014.9
20260906080113 19 28 0.0 0.0 0.00 0.00 0.00 99 1014.9
20260906075612 18 28 0.0 0.0 0.00 0.00 0.00 99 1015.0
20260906075107 18 28 0.0 0.0 0.00 0.00 0.00 99 1014.9
20260906074602 18 28 0.0 0.0 0.00 0.00 0.00 99 1015.1
20260906074055 18 28 0.0 0.0 0.00 0.00 0.00 99 1015.0
20260906073550 18 28 0.0 0.0 0.00 0.00 0.00 99 1015.0
20260906073046 18 28 0.0 0.0 0.00 0.00 0.00 99 1014.9
20260906072540 18 28 0.0 0.0 0.00 0.00 0.00 99 1014.9
20260906072037 18 28 0.0 0.0 0.00 0.00 0.00 99 1014.8
20260906071533 18 28 0.0 0.0 0.00 0.00 0.00 99 1014.9
20260906071027 18 28 0.0 0.0 0.00 0.00 0.00 99 1014.9
20260906070524 18 28 0.0 0.0 0.00 0.00 0.00 99 1014.6
20260906070020 18 28 0.0 0.0 0.00 0.00 0.00 99 1014.9
20260906065519 18 28 0.0 0.0 0.00 0.00 0.00 99 1014.9
20260906065015 18 28 0.0 0.0 0.00 0.00 0.00 99 1014.8
20260906064511 18 28 0.0 0.0 0.00 0.00 0.00 99 1014.8
20260906064005 18 28 0.0 0.0 0.00 0.00 0.00 99 1015.0
20260906063501 18 28 0.0 0.0 0.00 0.00 0.00 99 1014.9
20260906062956 18 28 0.0 0.0 0.00 0.00 0.00 99 1015.1
20260906062451 18 28 0.0 0.0 0.00 0.00 0.00 99 1015.0
20260906061946 19 28 0.0 0.0 0.00 0.00 0.00 99 1015.2
20260906061442 19 28 0.0 0.0 0.00 0.00 0.00 99 1015.0
20260906060936 19 28 0.0 0.0 0.00 0.00 0.00 99 1015.0
20260906060433 19 28 0.0 0.0 0.00 0.00 0.00 99 1014.9
20260906055929 19 28 0.0 0.0 0.00 0.00 0.00 99 1015.1
20260906055425 19 28 0.0 0.0 0.00 0.00 0.00 99 1015.1
20260906054920 19 28 0.0 0.0 0.00 0.00 0.00 99 1015.1
20260906054415 19 28 0.0 0.0 0.00 0.00 0.00 99 1015.1
20260906053911 19 28 0.0 0.0 0.00 0.00 0.00 99 1015.2
20260906053407 19 28 0.0 0.0 0.00 0.00 0.00 99 1015.0
20260906052902 19 28 0.0 0.0 0.00 0.00 0.00 99 1015.2
20260906052358 19 28 0.0 0.0 0.00 0.00 0.00 99 1015.2
20260906051854 19 28 0.0 0.0 0.00 0.00 0.00 99 1015.0
20260906051355 19 28 0.0 0.0 0.00 0.00 0.00 99 1015.0
20260906050850 19 28 0.0 0.0 0.00 0.00 0.00 99 1014.7
20260906050345 19 28 0.0 0.0 0.00 0.00 0.00 99 1014.7
20260906045844 19 28 0.0 0.0 0.00 0.00 0.00 99 1014.9
20260906045338 19 28 0.0 0.0 0.00 0.00 0.00 99 1014.6
20260906044834 19 28 0.0 0.0 0.00 0.00 0.00 99 1014.6
20260906044329 19 28 0.0 0.0 0.00 0.00 0.00 99 1014.6
20260906043827 20 28 0.0 0.0 0.00 0.00 0.00 99 1014.8
20260906043320 19 28 0.0 0.0 0.00 0.00 0.00 99 1014.8
20260906042814 20 28 0.0 0.0 0.00 0.00 0.00 99 1014.9
20260906042313 20 28 0.0 0.0 0.00 0.00 0.00 99 1015.0
20260906041809 20 28 0.0 0.0 0.00 0.00 0.00 99 1015.0
20260906041304 20 28 0.0 0.0 0.00 0.00 0.00 99 1014.8
20260906040759 20 28 0.0 0.0 0.00 0.00 0.00 99 1015.0
20260906040255 20 28 0.0 0.0 0.00 0.00 0.00 99 1014.9
20260906035750 20 28 0.0 0.0 0.00 0.00 0.00 99 1015.0
20260906035245 20 28 0.0 0.0 0.00 0.00 0.00 99 1015.1
20260906034740 20 28 0.0 0.0 0.00 0.00 0.00 99 1015.1
20260906034235 20 28 0.0 0.0 0.00 0.00 0.00 99 1015.0
20260906033731 20 28 0.0 0.0 0.00 0.00 0.00 99 1015.0
20260906033230 20 28 0.0 0.0 0.00 0.00 0.00 99 1014.9
20260906032727 20 28 0.0 0.0 0.00 0.00 0.00 99 1015.1
20260906032227 20 28 0.0 0.0 0.00 0.00 0.00 99 1015.0
20260906031722 20 28 0.0 0.0 0.00 0.00 0.00 99 1015.1
20260906031218 20 28 0.0 0.0 0.00 0.00 0.00 99 1015.4
20260906030717 20 28 0.0 0.0 0.00 0.00 0.00 99 1015.3
20260906030212 20 28 0.0 0.0 0.00 0.00 0.00 99 1015.4
20260906025711 20 28 0.0 0.0 0.00 0.00 0.00 99 1015.5
20260906025206 20 28 0.0 0.0 0.00 0.00 0.00 99 1015.2
20260906024700 20 28 0.0 0.0 0.00 0.00 0.00 99 1015.3
20260906024159 20 28 0.0 0.0 0.00 0.00 0.00 99 1015.4
20260906023655 20 28 0.0 0.0 0.00 0.00 0.00 99 1015.3
20260906023155 20 28 0.0 0.0 0.00 0.00 0.00 99 1015.3
20260906022650 20 28 0.0 0.0 0.00 0.00 0.00 99 1015.4
20260906022146 20 28 0.0 0.0 0.00 0.00 0.00 99 1015.1
20260906021642 20 28 0.0 0.0 0.00 0.00 0.00 99 1015.1
20260906021140 21 28 0.0 0.0 0.00 0.00 0.00 99 1015.1
20260906020635 20 28 0.0 0.0 0.00 0.00 0.00 99 1015.1
20260906020130 20 28 0.0 0.0 0.00 0.00 0.00 99 1015.1
20260906015624 21 28 0.0 0.0 0.00 0.00 0.00 99 1015.2
20260906015122 21 28 0.0 0.0 0.00 0.00 0.00 99 1015.2
20260906014617 21 28 0.0 0.0 0.00 0.00 0.00 99 1015.3
20260906014114 21 28 0.0 0.0 0.00 0.00 0.00 99 1015.0
20260906013609 21 28 0.0 0.0 0.00 0.00 0.00 99 1015.0
20260906013104 21 28 0.0 0.0 0.00 0.00 0.00 99 1014.9
20260906012559 21 28 0.0 0.0 0.00 0.00 0.00 99 1014.7
20260906012058 21 28 0.0 0.0 0.00 0.00 0.00 99 1014.5
20260906011554 21 28 0.0 0.0 0.00 0.00 0.00 99 1014.5
20260906011049 21 28 0.0 0.0 0.00 0.00 0.00 99 1014.5
20260906010545 21 28 0.0 0.0 0.00 0.00 0.00 99 1014.4
20260906010041 21 28 0.0 0.0 0.00 0.00 0.00 99 1014.5
20260906005539 21 28 0.0 0.0 0.00 0.00 0.00 99 1014.5
20260906005038 21 28 0.0 0.0 0.00 0.00 0.00 99 1014.4
20260906004533 21 28 0.0 0.0 0.00 0.00 0.00 99 1014.3
20260906004028 21 28 0.0 0.0 0.00 0.00 0.00 99 1014.4
20260906003523 21 28 0.0 0.0 0.00 0.00 0.00 99 1014.3
20260906003019 22 28 0.0 0.0 0.00 0.00 0.00 99 1014.2
20260906002519 22 28 0.0 0.0 0.00 0.00 0.00 99 1014.1
20260906002013 22 28 0.0 0.0 0.00 0.00 0.00 99 1014.3
20260906001509 22 28 0.0 0.0 0.00 0.00 0.00 99 1014.5
20260906001003 22 28 0.0 0.0 0.00 0.00 0.00 99 1014.5
20260906000500 22 28 0.0 0.0 0.00 0.00 0.00 99 1014.3
20260906000000 23 28 0.0 0.0 0.00 0.00 0.00 98 1014.3
20260905235459 23 28 0.0 0.0 0.00 0.00 0.00 98 1014.4
20260905234954 23 28 0.0 0.0 0.00 0.00 0.00 96 1014.4
20260905234450 23 28 0.0 0.0 0.00 0.00 0.00 95 1014.4
20260905233944 23 28 0.0 0.0 0.00 0.00 0.00 95 1014.4
20260905233440 25 27 0.0 0.0 0.00 0.00 0.00 93 1014.4
20260905232938 26 27 0.0 0.0 0.00 0.00 0.00 87 1014.3
20260905232435 26 27 0.0 0.0 0.00 0.00 0.00 88 1014.1
20260905231930 26 27 0.0 0.0 0.00 0.00 0.00 88 1014.5
20260905231426 26 27 1.6 1.6 0.00 0.00 0.00 87 1014.4
20260905230922 27 27 0.0 0.0 0.00 0.00 0.00 83 1014.3
20260905230420 28 26 0.0 0.0 0.00 0.00 0.00 80 1014.2
20260905225919 28 26 0.0 0.0 0.00 0.00 0.00 76 1014.4
20260905225414 28 26 1.6 1.6 0.00 0.00 0.00 73 1014.3
20260905224909 28 26 1.6 1.6 0.00 0.00 0.00 73 1014.2
20260905224405 28 320 1.6 3.2 0.00 0.00 0.00 69 1014.4
20260905223859 28 284 3.2 4.8 0.00 0.00 0.00 71 1014.3
20260905223358 29 308 3.2 3.2 0.00 0.00 0.00 71 1014.4
20260905222857 28 339 3.2 4.8 0.00 0.00 0.00 70 1014.6
20260905222356 28 9 3.2 4.8 0.00 0.00 0.00 71 1014.7
20260905221853 29 302 3.2 4.8 0.00 0.00 0.00 71 1014.5
20260905221350 29 356 3.2 4.8 0.00 0.00 0.00 71 1014.7
20260905220844 29 299 3.2 4.8 0.00 0.00 0.00 72 1014.7
20260905220341 28 38 0.0 1.6 0.00 0.00 0.00 73 1014.6
20260905215840 27 355 0.0 3.2 0.00 0.00 0.00 74 1014.7
20260905215336 27 322 3.2 6.4 0.00 0.00 0.00 74 1014.7
20260905214833 27 351 3.2 6.4 0.00 0.00 0.00 73 1014.6
20260905214332 28 324 1.6 6.4 0.00 0.00 0.00 73 1014.4
20260905213828 28 295 4.8 4.8 0.00 0.00 0.00 69 1014.4
20260905213324 29 15 4.8 4.8 0.00 0.00 0.00 67 1014.2
20260905212818 28 347 0.0 3.2 0.00 0.00 0.00 67 1014.2
20260905212313 27 37 3.2 4.8 0.00 0.00 0.00 73 1014.2
20260905211813 28 51 3.2 4.8 0.00 0.00 0.00 70 1014.1
20260905211308 28 73 0.0 3.2 0.00 0.00 0.00 68 1013.9
20260905210804 28 82 0.0 4.8 0.00 0.00 0.00 68 1014.1
20260905210304 28 37 6.4 9.7 0.00 0.00 0.00 70 1014.3
20260905205802 28 69 6.4 9.7 0.00 0.00 0.00 68 1014.0
20260905205257 28 33 1.6 9.7 0.00 0.00 0.00 72 1014.2
20260905204756 28 39 3.2 12.9 0.00 0.00 0.00 71 1014.2
20260905204253 28 333 1.6 6.4 0.00 0.00 0.00 69 1014.2
20260905203752 29 270 1.6 4.8 0.00 0.00 0.00 67 1014.2
20260905203247 29 274 4.8 9.7 0.00 0.00 0.00 65 1014.2
20260905202743 29 27 6.4 6.4 0.00 0.00 0.00 70 1014.5
20260905202238 28 54 0.0 3.2 0.00 0.00 0.00 68 1014.4
20260905201733 28 18 6.4 9.7 0.00 0.00 0.00 69 1014.3
20260905201228 28 27 1.6 4.8 0.00 0.00 0.00 70 1014.5
20260905200723 28 31 1.6 4.8 0.00 0.00 0.00 71 1014.5
20260905200219 28 142 1.6 6.4 0.00 0.00 0.00 68 1014.5
20260905195718 28 83 1.6 4.8 0.00 0.00 0.00 69 1014.6
20260905195218 29 346 4.8 4.8 0.00 0.00 0.00 68 1014.6
20260905194713 29 267 0.0 0.0 0.00 0.00 0.00 66 1014.6
20260905194213 29 285 3.2 4.8 0.00 0.00 0.00 67 1014.7
20260905193707 28 1 0.0 4.8 0.00 0.00 0.00 68 1014.9
20260905193202 28 113 0.0 0.0 0.00 0.00 0.00 68 1014.8
20260905192658 28 320 3.2 4.8 0.00 0.00 0.00 68 1014.9
20260905192154 28 63 1.6 3.2 0.00 0.00 0.00 69 1015.0
20260905191654 28 302 0.0 6.4 0.00 0.00 0.00 69 1014.9
20260905191152 28 316 4.8 6.4 0.00 0.00 0.00 70 1015.3
20260905190651 29 30 0.0 0.0 0.00 0.00 0.00 70 1015.3
20260905190150 29 60 3.2 4.8 0.00 0.00 0.00 73 1015.4
20260905185649 28 271 0.0 4.8 0.00 0.00 0.00 68 1015.3
20260905185144 27 207 0.0 3.2 0.00 0.00 0.00 73 1015.3
20260905184643 27 147 1.6 1.6 0.00 0.00 0.00 73 1015.6
20260905184142 28 209 1.6 4.8 0.00 0.00 0.00 76 1015.6
20260905183641 27 38 3.2 4.8 0.00 0.00 0.00 73 1015.7
20260905183137 27 309 4.8 4.8 0.00 0.00 0.00 73 1015.7
20260905182637 27 347 3.2 3.2 0.00 0.00 0.00 73 1015.9
20260905182136 27 267 6.4 6.4 0.00 0.00 0.00 72 1015.9
20260905181631 27 275 6.4 9.7 0.00 0.00 0.00 74 1015.7
20260905181130 26 283 1.6 9.7 0.00 0.00 0.00 74 1015.8
20260905180625 26 189 3.2 9.7 0.00 0.00 0.00 77 1015.9
20260905180121 26 139 3.2 6.4 0.00 0.00 0.00 77 1015.9
20260905175620 27 214 6.4 9.7 0.00 0.00 0.00 73 1016.0
20260905175115 26 208 3.2 4.8 0.00 0.00 0.00 78 1016.0
20260905174611 26 222 0.0 6.4 0.00 0.00 0.00 78 1016.0
20260905174106 26 300 1.6 3.2 0.00 0.00 0.00 81 1015.9
20260905173603 26 192 1.6 4.8 0.00 0.00 0.00 79 1016.0
20260905173058 26 121 3.2 4.8 0.00 0.00 0.00 79 1016.2
20260905172556 26 250 3.2 4.8 0.00 0.00 0.00 83 1016.1
20260905172051 25 297 4.8 6.4 0.00 0.00 0.00 79 1016.1
20260905171548 26 260 4.8 6.4 0.00 0.00 0.00 79 1016.2
20260905171044 26 233 4.8 9.7 0.00 0.00 0.00 81 1016.0
20260905170540 26 204 0.0 9.7 0.00 0.00 0.00 80 1016.0
20260905170035 26 246 1.6 3.2 0.00 0.00 0.00 81 1016.4
20260905165530 25 207 3.2 11.3 0.00 0.00 0.00 86 1016.7
20260905165020 26 220 3.2 6.4 0.00 0.00 0.00 82 1016.6
20260905164519 26 242 4.8 4.8 0.00 0.00 0.00 81 1016.9
20260905164014 25 227 0.0 3.2 0.00 0.00 0.00 83 1017.1
20260905163510 26 160 3.2 4.8 0.00 0.00 0.00 83 1017.2
20260905163006 25 235 1.6 4.8 0.00 0.00 0.00 89 1017.5
20260905162502 25 286 3.2 9.7 0.00 0.00 0.00 86 1017.4
20260905161956 25 245 4.8 4.8 0.00 0.00 0.00 83 1017.6
20260905161456 26 197 0.0 4.8 0.00 0.00 0.00 86 1017.6
20260905160954 24 260 3.2 4.8 0.00 0.00 0.00 91 1017.4
20260905160448 24 293 0.0 0.0 0.00 0.00 0.00 91 1017.5
20260905155947 23 34 0.0 0.0 0.00 0.00 0.00 93 1017.3
20260905155442 23 36 3.2 4.8 0.00 0.00 0.00 94 1017.3
20260905154941 23 47 1.6 1.6 0.00 0.00 0.00 94 1017.5
20260905154436 23 2 0.0 3.2 0.00 0.00 0.00 94 1017.4
20260905153932 23 13 0.0 0.0 0.00 0.00 0.00 95 1017.5
20260905153428 23 43 1.6 3.2 0.00 0.00 0.00 95 1017.3
20260905152927 22 95 1.6 1.6 0.00 0.00 0.00 95 1017.1
20260905152427 22 45 0.0 0.0 0.00 0.00 0.00 98 1017.3
20260905151922 22 73 0.0 0.0 0.00 0.00 0.00 98 1017.1
20260905151418 22 122 0.0 1.6 0.00 0.00 0.00 99 1017.1
20260905150919 22 38 1.6 3.2 0.00 0.00 0.00 99 1016.7
20260905150419 22 358 3.2 3.2 0.00 0.00 0.00 99 1016.8
20260905145915 22 312 0.0 1.6 0.00 0.00 0.00 99 1016.4
20260905145410 21 59 1.6 4.8 0.00 0.00 0.00 99 1016.3
20260905144909 21 8 0.0 0.0 0.00 0.00 0.00 99 1015.8
20260905144405 21 258 1.6 3.2 0.00 0.00 0.00 99 1015.6
20260905143903 21 232 1.6 3.2 0.00 0.00 0.00 99 1015.5
20260905143358 21 177 4.8 4.8 0.00 0.00 0.00 99 1015.0
20260905142857 21 222 3.2 4.8 0.00 0.00 0.00 99 1015.4
20260905142355 21 207 6.4 9.7 0.00 0.00 0.00 99 1015.6
20260905141852 21 236 3.2 4.8 0.00 0.00 0.00 99 1016.2
20260905141347 21 89 1.6 4.8 0.00 0.00 0.00 99 1016.2
20260905140843 21 218 3.2 6.4 0.00 0.00 0.00 99 1015.6
20260905140343 21 213 3.2 6.4 0.00 0.00 0.00 99 1015.9
20260905135841 21 195 4.8 4.8 0.00 0.00 0.00 99 1016.2
20260905135338 21 309 3.2 3.2 0.00 0.00 0.00 99 1016.7
20260905134833 21 227 3.2 9.7 0.00 0.00 0.00 99 1016.3
20260905134332 21 262 0.0 0.0 0.00 0.00 0.00 99 1016.7
20260905133826 20 239 1.6 4.8 0.00 0.00 0.00 99 1017.0
20260905133322 20 206 0.0 0.0 0.00 0.00 0.00 99 1017.1
20260905132820 20 206 0.0 0.0 0.00 0.00 0.00 99 1017.1
20260905132317 20 206 0.0 0.0 0.00 0.00 0.00 99 1017.2
20260905131811 20 206 0.0 0.0 0.00 0.00 0.00 99 1017.2
20260905131307 20 206 0.0 0.0 0.00 0.00 0.00 99 1017.0
20260905130802 20 206 0.0 0.0 0.00 0.00 0.00 99 1017.0
20260905130300 20 211 3.2 4.8 0.00 0.00 0.00 99 1016.9
20260905125756 20 221 0.0 0.0 0.00 0.00 0.00 99 1017.1
20260905125250 20 349 0.0 0.0 0.00 0.00 0.00 99 1017.1
20260905124747 20 27 1.6 3.2 0.00 0.00 0.00 99 1017.5
20260905124242 20 128 0.0 4.8 0.00 0.00 0.00 99 1017.2
20260905123737 20 200 0.0 1.6 0.00 0.00 0.00 99 1017.4
20260905123234 20 133 1.6 1.6 0.00 0.00 0.00 99 1017.4
20260905122735 20 65 1.6 3.2 0.00 0.00 0.00 99 1017.3
20260905122234 20 63 3.2 11.3 0.00 0.00 0.00 99 1017.5
20260905121729 20 21 1.6 11.3 0.00 0.00 0.00 99 1017.7
20260905121226 20 39 6.4 16.1 0.00 0.00 0.00 99 1017.8
20260905120724 20 59 9.7 12.9 0.00 0.00 0.00 99 1017.4
20260905120219 20 36 8.0 9.7 0.00 0.00 0.00 99 1017.1
20260905115720 20 114 0.0 6.4 0.00 0.00 0.00 99 1016.1